Location: Herm
(49.4830°N, 2.4500°W)
Time: 18:44:23
(UTC+00:00)

Tiangong 1 - Visible Passes

Search period start: 16 December 2017 00:00
Search period end: 26 December 2017 00:00
Orbit: 274 x 301 km, 42.8° (Epoch: 16 December)

Date Brightness Start Highest point End Pass type
(mag) Time Alt. Az. Time Alt. Az. Time Alt. Az.
22 Dec 3.5 06:21:27 10° SSW 06:22:38 12° SSE 06:23:49 10° SE visible
23 Dec 3.2 06:24:19 10° SSW 06:25:51 15° S 06:27:29 10° SE visible
24 Dec 3.0 06:27:40 12° SSW 06:29:01 17° S 06:30:48 10° SE visible
25 Dec 2.9 06:30:50 13° SW 06:32:04 18° S 06:33:53 10° SE visible
